Time,TemperatureF,DewpointF,PressureIn,WindDirection,WindDirectionDegrees,WindSpeedMPH,WindSpeedGustMPH,Humidity,HourlyPrecipIn,Conditions,Clouds,dailyrainin,SoftwareType,DateUTC
2013-03-02 00:12:00,36.8,28.0,29.95,NNW,336,0.0,0.0,70,0.00,,,0.00,weatherlink.com 1.10,2013-03-02 05:12:00,
2013-03-02 00:27:00,36.8,29.0,29.95,NNW,336,0.0,0.0,72,0.00,,,0.00,weatherlink.com 1.10,2013-03-02 05:27:00,
2013-03-02 00:42:00,36.4,29.0,29.95,NNW,336,0.0,1.0,75,0.00,,,0.00,weatherlink.com 1.10,2013-03-02 05:42:00,
2013-03-02 00:57:00,36.1,29.0,29.95,NNW,336,0.0,1.0,75,0.00,,,0.00,weatherlink.com 1.10,2013-03-02 05:57:00,
2013-03-02 01:12:00,35.8,29.0,29.94,NNW,335,0.0,0.0,77,0.00,,,0.00,weatherlink.com 1.10,2013-03-02 06:12:00,
2013-03-02 01:27:00,35.2,28.0,29.94,NNW,335,0.0,1.0,75,0.00,,,0.00,weatherlink.com 1.10,2013-03-02 06:27:00,
2013-03-02 01:42:00,35.2,28.0,29.94,NNW,335,0.0,0.0,75,0.00,,,0.00,weatherlink.com 1.10,2013-03-02 06:42:00,
2013-03-02 01:57:00,35.1,28.0,29.94,NNW,336,0.0,0.0,75,0.00,,,0.00,weatherlink.com 1.10,2013-03-02 06:57:00,
2013-03-02 02:12:00,34.6,29.0,29.93,NNW,336,0.0,0.0,79,0.00,,,0.00,weatherlink.com 1.10,2013-03-02 07:12:00,
2013-03-02 02:27:00,34.0,28.0,29.93,NNW,335,0.0,1.0,78,0.00,,,0.00,weatherlink.com 1.10,2013-03-02 07:27:00,
2013-03-02 02:42:00,34.1,28.0,29.93,NNW,335,0.0,0.0,78,0.00,,,0.00,weatherlink.com 1.10,2013-03-02 07:42:00,
2013-03-02 02:57:00,33.3,28.0,29.92,NNW,336,0.0,0.0,80,0.00,,,0.00,weatherlink.com 1.10,2013-03-02 07:57:00,
2013-03-02 03:12:00,32.9,28.0,29.92,NNW,335,0.0,0.0,83,0.00,,,0.00,weatherlink.com 1.10,2013-03-02 08:12:00,
2013-03-02 03:27:00,32.4,28.0,29.92,NNW,335,0.0,0.0,84,0.00,,,0.00,weatherlink.com 1.10,2013-03-02 08:27:00,
2013-03-02 03:42:00,32.3,28.0,29.92,NNW,335,0.0,0.0,84,0.00,,,0.00,weatherlink.com 1.10,2013-03-02 08:42:00,
2013-03-02 03:57:00,32.2,28.0,29.92,NNW,335,0.0,0.0,85,0.00,,,0.00,weatherlink.com 1.10,2013-03-02 08:57:00,
2013-03-02 04:12:00,32.2,29.0,29.91,NNW,336,0.0,0.0,86,0.00,,,0.00,weatherlink.com 1.10,2013-03-02 09:12:00,
2013-03-02 04:27:00,32.5,29.0,29.91,NNW,335,0.0,0.0,86,0.00,,,0.00,weatherlink.com 1.10,2013-03-02 09:27:00,
2013-03-02 04:42:00,32.6,29.0,29.92,NNW,335,0.0,0.0,86,0.00,,,0.00,weatherlink.com 1.10,2013-03-02 09:42:00,
2013-03-02 04:57:00,32.8,29.0,29.92,NNW,336,0.0,0.0,86,0.00,,,0.00,weatherlink.com 1.10,2013-03-02 09:57:00,
2013-03-02 05:12:00,33.1,29.0,29.91,NNW,336,0.0,0.0,86,0.00,,,0.00,weatherlink.com 1.10,2013-03-02 10:12:00,
2013-03-02 05:27:00,32.9,29.0,29.91,NNW,336,0.0,0.0,86,0.00,,,0.00,weatherlink.com 1.10,2013-03-02 10:27:00,
2013-03-02 05:42:00,32.9,30.0,29.91,NNW,335,0.0,0.0,88,0.00,,,0.00,weatherlink.com 1.10,2013-03-02 10:42:00,
2013-03-02 05:57:00,32.8,30.0,29.91,NNW,335,0.0,0.0,88,0.00,,,0.00,weatherlink.com 1.10,2013-03-02 10:57:00,
2013-03-02 06:12:00,32.6,29.0,29.91,NNW,335,0.0,0.0,87,0.00,,,0.00,weatherlink.com 1.10,2013-03-02 11:12:00,
2013-03-02 06:27:00,32.4,29.0,29.91,NNW,335,0.0,0.0,88,0.00,,,0.00,weatherlink.com 1.10,2013-03-02 11:27:00,
2013-03-02 06:42:00,32.5,29.0,29.92,NNW,335,0.0,0.0,88,0.00,,,0.00,weatherlink.com 1.10,2013-03-02 11:42:00,
2013-03-02 06:57:00,32.6,29.0,29.92,NNW,335,0.0,0.0,87,0.00,,,0.00,weatherlink.com 1.10,2013-03-02 11:57:00,
2013-03-02 07:12:00,32.8,30.0,29.92,NNW,335,0.0,0.0,88,0.00,,,0.00,weatherlink.com 1.10,2013-03-02 12:12:00,
2013-03-02 07:27:00,32.9,30.0,29.92,NNW,335,0.0,0.0,88,0.00,,,0.00,weatherlink.com 1.10,2013-03-02 12:27:00,
2013-03-02 07:42:00,33.1,30.0,29.93,NNW,335,0.0,0.0,88,0.00,,,0.00,weatherlink.com 1.10,2013-03-02 12:42:00,
2013-03-02 07:57:00,33.5,30.0,29.93,NNW,335,0.0,0.0,86,0.00,,,0.00,weatherlink.com 1.10,2013-03-02 12:57:00,
2013-03-02 08:12:00,34.2,31.0,29.94,NNW,335,0.0,1.0,86,0.00,,,0.00,weatherlink.com 1.10,2013-03-02 13:12:00,
2013-03-02 08:27:00,35.1,30.0,29.94,NNW,335,0.0,1.0,83,0.00,,,0.00,weatherlink.com 1.10,2013-03-02 13:27:00,
2013-03-02 08:42:00,36.1,29.0,29.94,South,184,0.0,1.0,75,0.00,,,0.00,weatherlink.com 1.10,2013-03-02 13:42:00,
2013-03-02 08:57:00,36.6,30.0,29.93,SSE,152,2.0,4.0,77,0.00,,,0.00,weatherlink.com 1.10,2013-03-02 13:57:00,
2013-03-02 09:12:00,36.5,30.0,29.93,South,191,0.0,2.0,78,0.00,,,0.00,weatherlink.com 1.10,2013-03-02 14:12:00,
2013-03-02 09:27:00,36.2,31.0,29.93,West,273,0.0,1.0,80,0.00,,,0.00,weatherlink.com 1.10,2013-03-02 14:27:00,
2013-03-02 09:42:00,37.3,31.0,29.93,SW,221,1.0,1.0,78,0.00,,,0.00,weatherlink.com 1.10,2013-03-02 14:42:00,
2013-03-02 09:57:00,37.9,32.0,29.93,SE,134,1.0,1.0,78,0.00,,,0.00,weatherlink.com 1.10,2013-03-02 14:57:00,
2013-03-02 10:13:00,37.9,32.0,29.93,ESE,114,0.0,2.0,78,0.00,,,0.00,weatherlink.com 1.10,2013-03-02 15:13:00,
2013-03-02 10:28:00,38.9,32.0,29.93,ENE,72,2.0,2.0,75,0.00,,,0.00,weatherlink.com 1.10,2013-03-02 15:28:00,
2013-03-02 10:43:00,38.4,30.0,29.92,East,84,0.0,2.0,73,0.00,,,0.00,weatherlink.com 1.10,2013-03-02 15:43:00,
2013-03-02 10:58:00,38.3,30.0,29.92,WNW,285,0.0,5.0,71,0.00,,,0.00,weatherlink.com 1.10,2013-03-02 15:58:00,
2013-03-02 11:13:00,38.7,30.0,29.92,NNE,33,2.0,3.0,70,0.00,,,0.00,weatherlink.com 1.10,2013-03-02 16:13:00,
2013-03-02 11:28:00,39.1,29.0,29.91,WNW,293,2.0,5.0,67,0.00,,,0.00,weatherlink.com 1.10,2013-03-02 16:28:00,
2013-03-02 11:43:00,39.7,27.0,29.91,NE,44,6.0,6.0,62,0.00,,,0.00,weatherlink.com 1.10,2013-03-02 16:43:00,
2013-03-02 11:58:00,41.3,29.0,29.91,SW,223,0.0,4.0,63,0.00,,,0.00,weatherlink.com 1.10,2013-03-02 16:58:00,
2013-03-02 12:13:00,42.2,28.0,29.90,South,177,2.0,6.0,57,0.00,,,0.00,weatherlink.com 1.10,2013-03-02 17:13:00,
2013-03-02 12:28:00,41.6,26.0,29.90,WNW,295,4.0,6.0,54,0.00,,,0.00,weatherlink.com 1.10,2013-03-02 17:28:00,
2013-03-02 12:43:00,40.6,25.0,29.89,NW,319,2.0,7.0,55,0.00,,,0.00,weatherlink.com 1.10,2013-03-02 17:43:00,
2013-03-02 12:58:00,40.9,25.0,29.89,SW,215,1.0,6.0,54,0.00,,,0.00,weatherlink.com 1.10,2013-03-02 17:58:00,
2013-03-02 13:13:00,41.9,25.0,29.88,WSW,239,2.0,12.0,52,0.00,,,0.00,weatherlink.com 1.10,2013-03-02 18:13:00,
2013-03-02 13:28:00,42.4,24.0,29.88,West,259,4.0,8.0,48,0.00,,,0.00,weatherlink.com 1.10,2013-03-02 18:28:00,
2013-03-02 13:43:00,42.7,25.0,29.88,NNW,330,3.0,10.0,49,0.00,,,0.00,weatherlink.com 1.10,2013-03-02 18:43:00,
2013-03-02 13:58:00,42.5,25.0,29.87,NW,319,4.0,8.0,51,0.00,,,0.00,weatherlink.com 1.10,2013-03-02 18:58:00,
2013-03-02 14:13:00,41.6,25.0,29.87,NNE,22,7.0,12.0,51,0.00,,,0.00,weatherlink.com 1.10,2013-03-02 19:13:00,
2013-03-02 14:28:00,41.1,24.0,29.87,WNW,297,2.0,10.0,50,0.00,,,0.00,weatherlink.com 1.10,2013-03-02 19:28:00,
2013-03-02 14:43:00,40.4,24.0,29.88,NNE,12,5.0,8.0,53,0.00,,,0.00,weatherlink.com 1.10,2013-03-02 19:43:00,
2013-03-02 14:58:00,40.7,22.0,29.88,NNE,14,5.0,10.0,48,0.00,,,0.00,weatherlink.com 1.10,2013-03-02 19:58:00,
2013-03-02 15:13:00,42.3,23.0,29.88,West,278,2.0,12.0,46,0.00,,,0.00,weatherlink.com 1.10,2013-03-02 20:13:00,
2013-03-02 15:28:00,42.0,24.0,29.89,WNW,291,3.0,9.0,49,0.00,,,0.00,weatherlink.com 1.10,2013-03-02 20:28:00,
2013-03-02 15:43:00,40.4,23.0,29.89,NNW,335,3.0,9.0,50,0.00,,,0.00,weatherlink.com 1.10,2013-03-02 20:43:00,
2013-03-02 15:58:00,39.4,22.0,29.89,NW,326,3.0,9.0,51,0.00,,,0.00,weatherlink.com 1.10,2013-03-02 20:58:00,
2013-03-02 16:13:00,39.1,22.0,29.89,NW,323,2.0,14.0,51,0.00,,,0.00,weatherlink.com 1.10,2013-03-02 21:13:00,
2013-03-02 16:28:00,38.4,21.0,29.90,WNW,285,1.0,9.0,49,0.00,,,0.00,weatherlink.com 1.10,2013-03-02 21:28:00,
2013-03-02 16:43:00,38.2,22.0,29.90,NNE,18,4.0,10.0,52,0.00,,,0.00,weatherlink.com 1.10,2013-03-02 21:43:00,
2013-03-02 16:58:00,38.4,21.0,29.91,NW,314,4.0,7.0,50,0.00,,,0.00,weatherlink.com 1.10,2013-03-02 21:58:00,
2013-03-02 17:13:00,37.3,22.0,29.91,North,6,4.0,9.0,54,0.00,,,0.00,weatherlink.com 1.10,2013-03-02 22:13:00,
2013-03-02 17:28:00,36.1,22.0,29.92,NNE,18,2.0,7.0,56,0.00,,,0.00,weatherlink.com 1.10,2013-03-02 22:28:00,
2013-03-02 17:43:00,35.2,21.0,29.93,NW,323,3.0,8.0,57,0.00,,,0.00,weatherlink.com 1.10,2013-03-02 22:43:00,
2013-03-02 17:58:00,35.0,21.0,29.93,NNW,335,1.0,7.0,58,0.00,,,0.00,weatherlink.com 1.10,2013-03-02 22:58:00,
2013-03-02 18:13:00,34.7,21.0,29.94,North,1,3.0,6.0,58,0.00,,,0.00,weatherlink.com 1.10,2013-03-02 23:13:00,
2013-03-02 18:28:00,34.1,21.0,29.95,NW,316,2.0,9.0,60,0.00,,,0.00,weatherlink.com 1.10,2013-03-02 23:28:00,
2013-03-02 18:43:00,33.8,21.0,29.95,WNW,300,2.0,8.0,60,0.00,,,0.00,weatherlink.com 1.10,2013-03-02 23:43:00,
2013-03-02 18:58:00,33.6,21.0,29.95,NNE,30,2.0,10.0,60,0.00,,,0.00,weatherlink.com 1.10,2013-03-02 23:58:00,
2013-03-02 19:13:00,33.2,21.0,29.96,NW,322,4.0,6.0,60,0.00,,,0.00,weatherlink.com 1.10,2013-03-03 00:13:00,
2013-03-02 19:28:00,32.8,20.0,29.96,NW,317,6.0,8.0,60,0.00,,,0.00,weatherlink.com 1.10,2013-03-03 00:28:00,
2013-03-02 19:43:00,32.2,21.0,29.97,North,356,2.0,8.0,63,0.00,,,0.00,weatherlink.com 1.10,2013-03-03 00:43:00,
2013-03-02 19:59:00,32.0,21.0,29.97,NW,323,1.0,9.0,64,0.00,,,0.00,weatherlink.com 1.10,2013-03-03 00:59:00,
2013-03-02 20:14:00,32.0,21.0,29.97,NW,305,3.0,6.0,65,0.00,,,0.00,weatherlink.com 1.10,2013-03-03 01:14:00,
2013-03-02 20:29:00,31.8,21.0,29.97,NNW,336,3.0,7.0,65,0.00,,,0.00,weatherlink.com 1.10,2013-03-03 01:29:00,
2013-03-02 20:44:00,31.5,21.0,29.98,NW,319,3.0,8.0,65,0.00,,,0.00,weatherlink.com 1.10,2013-03-03 01:44:00,
2013-03-02 20:59:00,31.3,20.0,29.98,North,350,3.0,7.0,64,0.00,,,0.00,weatherlink.com 1.10,2013-03-03 01:59:00,
2013-03-02 21:14:00,31.2,21.0,29.99,WNW,298,2.0,9.0,65,0.00,,,0.00,weatherlink.com 1.10,2013-03-03 02:14:00,
2013-03-02 21:29:00,31.0,20.0,29.99,North,358,3.0,10.0,63,0.00,,,0.00,weatherlink.com 1.10,2013-03-03 02:29:00,
2013-03-02 21:44:00,30.8,19.0,29.99,NNW,332,4.0,7.0,63,0.00,,,0.00,weatherlink.com 1.10,2013-03-03 02:44:00,
2013-03-02 21:59:00,30.5,19.0,30.00,West,273,3.0,13.0,62,0.00,,,0.00,weatherlink.com 1.10,2013-03-03 02:59:00,
2013-03-02 22:14:00,30.1,19.0,30.00,NW,308,2.0,8.0,63,0.00,,,0.00,weatherlink.com 1.10,2013-03-03 03:14:00,
2013-03-02 22:29:00,30.0,18.0,30.00,NW,322,5.0,8.0,62,0.00,,,0.00,weatherlink.com 1.10,2013-03-03 03:29:00,
2013-03-02 22:44:00,29.8,18.0,30.00,NNW,332,3.0,9.0,62,0.00,,,0.00,weatherlink.com 1.10,2013-03-03 03:44:00,
2013-03-02 22:59:00,29.8,18.0,29.99,North,360,6.0,11.0,62,0.00,,,0.00,weatherlink.com 1.10,2013-03-03 03:59:00,
2013-03-02 23:14:00,29.6,18.0,29.99,NNE,13,3.0,5.0,62,0.00,,,0.00,weatherlink.com 1.10,2013-03-03 04:14:00,
2013-03-02 23:29:00,29.4,18.0,29.99,NW,311,5.0,8.0,63,0.00,,,0.00,weatherlink.com 1.10,2013-03-03 04:29:00,
2013-03-02 23:44:00,29.3,18.0,29.99,NNW,334,4.0,7.0,64,0.00,,,0.00,weatherlink.com 1.10,2013-03-03 04:44:00,
2013-03-02 23:59:00,29.2,19.0,29.99,NW,308,1.0,7.0,65,0.00,,,0.00,weatherlink.com 1.10,2013-03-03 04:59:00,